DELTA 1 DEB, 21353

Orbit data source: Space-Track

DELTA 1 DEB, 21353 is space debris in SSO originally from a launch on Thu, 12 Jun 1975 UTC launched from the Air Force Western Test Range (AFWTR). Debris objects in space refer to the collection of defunct objects orbiting the Earth. Examples of debris include non-operational satellites, rocket bodies, and fragments generated from explosions, collisions, or faulty payload assembly.

Loading next visibility...
Identifier
21353, 1975-052BX
Orbit
SSO
Country
Flag of USUS
Related business
Manufacturer
Unknown
Mission
Spacecraft
Bus & Motor
Unknown
Mass
Unknown
Launch date (UTC)
1975-06-12 (51 years ago)
Launch vehicle
Unknown
Launch site
Air Force Western Test Range (AFWTR)
Object type
Payload
Rocket body
Debris
Shape & HBR
Unknown shape, 0.1 m
Radar Cross Section
Small (<0.1 m²)

Expand to show TLE details & history
Last TLE update: 2 days ago

TLE from 2 days ago
0 DELTA 1 DEB
1 21353U 75052BX  26123.61221546  .00000140  00000-0  77739-3 0  9995
2 21353  99.5465 358.4610 0522710  53.3084 337.6703 12.40767798582107
Epoch: 2026-05-03T14:41Z
TLE epoch observation values (Epoch: 2026-05-03T14:41:35.415Z)
Latitude
28.17063°
Longitude
-88.59044°
Altitude
1,128.795 km
Speed
7.463 km/s
True Right ascension
23h 33m 16s
True Declination
28° 02' 05"
Sunlit
Object was in daylight at epoch
Visualization orbit readout
Latitude
Unknown
Longitude
Unknown
Altitude
Unknown
Speed
Unknown
Apparent Right ascension
Unknown
Apparent Declination
Unknown
Sunlit
N/A
Visualization observer readout
Local Sidereal Time
11:20:20
Azimuth
Unknown
Elevation
Unknown
Doppler factor
Unknown
Orbital elements
Apogee altitude
1,912.62 km
Perigee altitude
1,088.943 km
Semi-major axis
7,878.919 km
Eccentricity
0.05227
Inclination
99.5465°
RAAN
358.461°
Arg. of periapsis
53.3084°
True anomaly
335.2493°
Mean anomaly
337.6703°
Eccentric anomaly
336.47488°
Mean motion
3.10344 °/min
Orbital period
116 mins
BSTAR
0.00077739
Loading maneuver chart data...
Computing Atmospheric mass density...
Loading historical data...
Loading historical data...
Loading historical data...
Loading historical data...
Loading historical data...
Loading historical data...
Loading historical data...

Documentation

Showing up to 5 results
|